Location: Erba
(45.8000°N, 9.2500°E)
Time: 12:19:28
(UTC+02:00)

ISS - Pass Details

Date: 08 July 2020
Orbit: 417 x 420 km, 51.6° (Epoch: 02 July)

Event Time Altitude Azimuth Distance (km) Brightness Sun altitude
Exits shadow 01:50:19 29° 80° (E) 796 -2.3 -21.6°
Drops below altitude 10° 01:52:10 10° 67° (ENE) 1,496 -0.6 -21.5°
Sets 01:54:17 0° 64° (ENE) 2,362 0.5 -21.5°
